Hourly Data Report for October 06, 2015

All times are specified in Local Standard Time (LST). Add 1 hour to adjust for Daylight Saving Time where and when it is observed.

PENTICTON A
BRITISH COLUMBIA

49°27'45.000" N
119°36'08.000" W
344.40 m
1126146
71889
YYF

Download Data

Hourly Data (October 2015)
Hourly Data Report for October 6, 2015
Temp Definition
°C
Dew Point Temp Definition
°C
Rel Hum Definition
%
Wind Dir Definition
10's deg

Wind Spd Definition
km/h
Visibility Definition
km
Stn Press Definition
kPa
Hmdx Definition


Wind Chill Definition


Weather Definition


TIME
00:00 Legend Double Dagger 6.1 3.9 86 36 8 24.1 97.56     LegendNANA
01:00 Legend Double Dagger 6.1 3.3 82 1 6 24.1 97.56     Clear
02:00 Legend Double Dagger 3.8 3.4 97 32 5 24.1 97.60     LegendNANA
03:00 Legend Double Dagger 5.3 3.6 89 2 8 24.1 97.61     LegendNANA
04:00 Legend Double Dagger 4.1 3.2 94 6 4 24.1 97.64     Clear
05:00 Legend Double Dagger 3.1 1.0 86 7 4 24.1 97.66     LegendNANA
06:00 Legend Double Dagger 3.7 2.8 94 4 7 24.1 97.66     LegendNANA
07:00 Legend Double Dagger 4.9 3.7 92 28 5 24.1 97.67     Mostly Cloudy
08:00 Legend Double Dagger 6.8 5.3 90 0 1 24.1 97.71     LegendNANA
09:00 Legend Double Dagger 10.7 7.4 80 14 3 24.1 97.73     LegendNANA
10:00 Legend Double Dagger 12.4 7.1 70 22 5 24.1 97.65     Mostly Cloudy
11:00 Legend Double Dagger 13.8 6.5 61 16 7 24.1 97.65     LegendNANA
12:00 Legend Double Dagger 13.9 7.0 63 1 9 24.1 97.62     LegendNANA
13:00 Legend Double Dagger 14.7 7.8 63 1 12 24.1 97.55     Cloudy
14:00 Legend Double Dagger 14.9 7.8 62 4 5 24.1 97.52     LegendNANA
15:00 Legend Double Dagger 15.5 8.1 61 35 7 24.1 97.56     LegendNANA
16:00 Legend Double Dagger 15.4 7.0 57 31 7 24.1 97.46     Cloudy
17:00 Legend Double Dagger 15.5 6.3 54 28 8 24.1 97.46     LegendNANA
18:00 Legend Double Dagger 14.6 6.5 58 31 8 24.1 97.45     LegendNANA
19:00 Legend Double Dagger 13.6 5.8 59 35 10 24.1 97.49     Mostly Cloudy
20:00 Legend Double Dagger 13.8 5.2 56 32 10 24.1 97.54     LegendNANA
21:00 Legend Double Dagger 10.1 5.9 75 3 4 24.1 97.57     LegendNANA
22:00 Legend Double Dagger 9.4 6.0 79 36 3 24.1 97.58     Mostly Cloudy
23:00 Legend Double Dagger 9.3 5.3 76 36 7 24.1 97.57     LegendNANA

Notes on Data Quality.

Legend

  • E = Estimated
  • M = Missing
  • NA = Not Available
  • ‡ = Partner data that is not subject to review by the National Climate Archives
Date modified: